Nantucket, MA

2:14 AM EDT on May 24, 2017 (GMT -0400)
Nantucket Memorial

Weather History for KACK - January, 2012

Change the Weather History Date:

Wednesday, January 25, 2012

  Actual Average Record
Temperature  
Mean Temperature 40 °F -  
Max Temperature 43 °F 40 °F 52 °F (1975)
Min Temperature 36 °F 27 °F 3 °F (2004)
Degree Days  
Heating Degree Days 26    
Moisture  
Dew Point 29 °F    
Average Humidity 66    
Maximum Humidity 81    
Minimum Humidity 53    
Precipitation  
Precipitation 0.00 in - - ()
Sea Level Pressure  
Sea Level Pressure 30.15 in    
Wind  
Wind Speed 11 mph (WNW)    
Max Wind Speed 18 mph    
Max Gust Speed 25 mph    
Visibility 10 miles    
Events      
Averages and records for this station are not official NWS values.
T = Trace of Precipitation, MM = Missing Value Source: NWS Daily Summary

Daily Weather History Graph

Daily Weather History Graph

Search for Another Location

Airport or City:

Trip Planner

Search our weather history database for the weather conditions in past years. The results will help you decide how hot, cold, wet, or windy it might be!

Date:

Astronomy

Jan. 25, 2012 Rise Set
Actual Time 6:57 AM EST 4:47 PM EST
Civil Twilight 6:28 AM EST 5:17 PM EST
Nautical Twilight 5:54 AM EST 5:50 PM EST
Astronomical Twilight 5:22 AM EST 6:23 PM EST
Moon 7:53 AM EST (1/25) 7:39 PM EST (1/25)
Length of Visible Light 10h 48m
Length of Day
9h 49m
Waxing Crescent, 6% of the Moon is Illuminated
Jan 25
Waxing Crescent
Jan 30
First Quarter
Feb 7
Full
Feb 14
Last Quarter
Feb 21
New

Hourly Weather History & Observations

Time (EST) Temp. Windchill Dew Point Humidity Pressure Visibility Wind Dir Wind Speed Gust Speed Precip Events Conditions
12:53 AM 42.8 °F 38.6 °F 37.4 °F 81% 30.04 in 10.0 mi NW 6.9 mph - N/A   Overcast
1:53 AM 42.1 °F 37.1 °F 36.0 °F 79% 30.07 in 10.0 mi WNW 8.1 mph - N/A   Overcast
2:53 AM 41.0 °F 33.9 °F 33.1 °F 73% 30.08 in 10.0 mi WNW 12.7 mph - N/A   Overcast
3:53 AM 39.9 °F 32.9 °F 30.9 °F 70% 30.09 in 10.0 mi WNW 11.5 mph - N/A   Overcast
4:53 AM 39.0 °F 31.4 °F 28.0 °F 65% 30.12 in 10.0 mi WNW 12.7 mph - N/A   Mostly Cloudy
5:53 AM 37.0 °F 29.3 °F 27.0 °F 67% 30.13 in 10.0 mi WNW 11.5 mph - N/A   Clear
6:53 AM 36.0 °F 29.0 °F 26.1 °F 67% 30.15 in 10.0 mi West 9.2 mph - N/A   Clear
7:53 AM 37.0 °F 28.1 °F 27.0 °F 67% 30.17 in 10.0 mi West 15.0 mph - N/A   Clear
8:53 AM 39.9 °F 31.1 °F 27.0 °F 60% 30.19 in 10.0 mi WNW 17.3 mph 24.2 mph N/A   Clear
9:53 AM 42.1 °F 33.6 °F 27.0 °F 55% 30.19 in 10.0 mi WNW 18.4 mph 24.2 mph N/A   Clear
10:53 AM 42.1 °F 33.9 °F 27.0 °F 55% 30.19 in 10.0 mi WNW 17.3 mph 25.3 mph N/A   Clear
11:53 AM 42.1 °F 34.5 °F 26.1 °F 53% 30.17 in 10.0 mi WNW 15.0 mph 24.2 mph N/A   Clear
12:53 PM 42.1 °F 34.5 °F 28.0 °F 58% 30.14 in 10.0 mi West 15.0 mph - N/A   Partly Cloudy
1:53 PM 42.8 °F 35.8 °F 26.6 °F 53% 30.14 in 10.0 mi WNW 13.8 mph 21.9 mph N/A   Clear
2:53 PM 43.0 °F 36.4 °F 27.0 °F 53% 30.16 in 10.0 mi West 12.7 mph - N/A   Clear
3:53 PM 41.0 °F 33.9 °F 28.9 °F 62% 30.15 in 10.0 mi West 12.7 mph - N/A   Clear
5:53 PM 37.4 °F 30.8 °F 28.4 °F 70% 30.17 in 10.0 mi West 9.2 mph - N/A   Clear
6:53 PM 37.4 °F 32.8 °F 28.4 °F 70% 30.19 in 10.0 mi West 5.8 mph - N/A   Clear
7:53 PM 36.0 °F 29.6 °F 28.9 °F 76% 30.19 in 10.0 mi WNW 8.1 mph - N/A   Clear
8:53 PM 37.9 °F 32.1 °F 28.9 °F 70% 30.19 in 10.0 mi NW 8.1 mph - N/A   Clear
9:53 PM 37.4 °F 30.8 °F 28.4 °F 70% 30.19 in 10.0 mi NW 9.2 mph - N/A   Clear
10:53 PM 37.0 °F 30.4 °F 28.0 °F 70% 30.18 in 10.0 mi NW 9.2 mph - N/A   Clear
11:53 PM 36.0 °F 32.1 °F 28.0 °F 73% 30.17 in 10.0 mi WNW 4.6 mph - N/A   Partly Cloudy